Location: Colebrook
(42.0017°N, 73.0973°W)
Time: 10:53:41
(UTC-04:00)

Tiros 1 despin weight - All Passes

Search period start: 25 October 2021 00:00
Search period end: 04 November 2021 00:00
Orbit: 592 x 641 km, 48.2° (Epoch: 24 October)

Date Brightness Start Highest point End Pass type
(mag) Time Alt. Az. Time Alt. Az. Time Alt. Az.
25 Oct - 04:52:10 10° SW 04:56:37 48° SE 05:01:08 10° ENE visible
25 Oct - 06:33:37 10° W 06:38:12 54° NNW 06:42:49 10° ENE visible
25 Oct - 08:15:59 10° WNW 08:20:23 38° N 08:24:47 10° ENE daylight
25 Oct - 09:57:47 10° WNW 10:02:29 66° NNE 10:07:07 10° ESE daylight
25 Oct - 11:39:38 10° WNW 11:43:51 34° SW 11:48:02 10° SSE daylight
26 Oct - 03:28:33 10° S 03:31:43 18° SE 03:34:55 10° E visible
26 Oct - 05:08:06 10° WSW 05:12:45 82° SSE 05:17:27 10° ENE visible
26 Oct - 06:50:09 10° W 06:54:37 42° N 06:59:06 10° ENE visible
26 Oct - 08:32:22 10° WNW 08:36:51 42° N 08:41:19 10° E daylight
26 Oct - 10:14:01 10° WNW 10:18:43 82° SSW 10:23:23 10° ESE daylight
26 Oct - 11:56:31 10° W 11:59:46 19° SW 12:02:59 10° S daylight
27 Oct - 03:43:28 10° SSW 03:47:37 34° SE 03:51:49 10° ENE visible
27 Oct - 05:24:23 10° WSW 05:29:00 66° NNW 05:33:40 10° ENE visible
27 Oct - 07:06:42 10° WNW 07:11:04 38° N 07:15:29 10° ENE daylight
27 Oct - 08:48:39 10° WNW 08:53:16 53° NNE 08:57:51 10° E daylight
27 Oct - 10:30:19 10° WNW 10:34:51 48° SW 10:39:19 10° SE daylight
28 Oct - 02:21:03 10° SSE 02:22:51 12° SE 02:24:38 10° ESE night (unlit)
28 Oct - 03:59:07 10° SW 04:03:39 60° SSE 04:08:16 10° ENE visible
28 Oct - 05:40:50 10° W 05:45:21 48° NNW 05:49:55 10° ENE visible
28 Oct - 07:23:09 10° WNW 07:27:34 39° N 07:31:59 10° ENE daylight
28 Oct - 09:04:52 10° WNW 09:09:34 77° NNE 09:14:16 10° ESE daylight
28 Oct - 10:46:54 10° W 10:50:50 27° SW 10:54:45 10° SSE daylight
29 Oct - 02:35:02 10° S 02:38:40 23° SE 02:42:21 10° E night (unlit)
29 Oct - 04:15:12 10° WSW 04:19:50 84° NNW 04:24:32 10° ENE visible
29 Oct - 05:57:23 10° WNW 06:01:47 40° N 06:06:14 10° ENE visible
29 Oct - 07:39:29 10° WNW 07:44:01 46° NNE 07:48:32 10° E daylight
29 Oct - 09:21:06 10° WNW 09:25:46 68° SSW 09:30:24 10° SE daylight
29 Oct - 11:04:09 10° W 11:06:41 14° SW 11:09:12 10° SSW daylight
30 Oct - 02:50:18 10° SSW 02:54:37 42° SE 02:59:01 10° ENE visible
30 Oct - 04:31:33 10° W 04:36:07 57° NNW 04:40:45 10° ENE visible
30 Oct - 06:13:54 10° WNW 06:18:16 38° N 06:22:40 10° ENE visible
30 Oct - 07:55:44 10° WNW 08:00:23 61° NNE 08:05:02 10° ESE daylight
30 Oct - 09:37:29 10° WNW 09:41:51 39° SW 09:46:11 10° SSE daylight
31 Oct - 01:27:00 10° S 01:29:46 16° SE 01:32:33 10° E night (unlit)
31 Oct - 03:06:08 10° SW 03:10:42 74° SSE 03:15:21 10° ENE visible
31 Oct - 04:48:04 10° W 04:52:31 44° NNW 04:57:01 10° ENE visible
31 Oct - 06:30:18 10° WNW 06:34:44 41° N 06:39:11 10° E visible
31 Oct - 08:11:56 10° WNW 08:16:39 90° SW 08:21:21 10° ESE daylight
31 Oct - 09:54:14 10° W 09:57:47 21° SW 10:01:19 10° S daylight
01 Nov - 01:41:41 10° SSW 01:45:38 29° SE 01:49:39 10° ENE night (unlit)
01 Nov - 03:22:20 10° WSW 03:26:55 71° NNW 03:31:36 10° ENE visible
01 Nov - 05:04:36 10° WNW 05:08:58 38° N 05:13:22 10° ENE visible
01 Nov - 06:46:36 10° WNW 06:51:10 50° NNE 06:55:44 10° E visible
01 Nov - 08:28:13 10° WNW 08:32:48 55° SW 08:37:22 10° SE daylight
01 Nov - 10:12:26 10° WSW 10:13:35 11° SW 10:14:45 10° SW daylight
02 Nov - 00:20:36 10° SE 00:20:54 10° SE 00:21:12 10° SE night (unlit)
02 Nov - 01:57:11 10° SW 02:01:38 53° SE 02:06:09 10° ENE night (unlit)
02 Nov - 03:38:46 10° W 03:43:15 50° NNW 03:47:49 10° ENE visible
02 Nov - 05:21:05 10° WNW 05:25:27 38° N 05:29:51 10° ENE visible
02 Nov - 07:02:49 10° WNW 07:07:30 71° NNE 07:12:11 10° ESE daylight
02 Nov - 08:44:43 10° WNW 08:48:49 31° SW 08:52:56 10° SSE daylight
03 Nov - 00:33:21 10° S 00:36:41 20° SE 00:40:04 10° E night (unlit)
03 Nov - 02:13:12 10° WSW 02:17:46 89° SSE 02:22:26 10° ENE night (unlit)
03 Nov - 03:55:18 10° W 03:59:40 41° N 04:04:06 10° ENE visible
03 Nov - 05:37:26 10° WNW 05:41:54 44° NNE 05:46:23 10° E visible
03 Nov - 07:19:02 10° WNW 07:23:43 75° SSW 07:28:23 10° SE daylight
03 Nov - 09:01:44 10° W 09:04:42 17° SW 09:07:40 10° S daylight
